Flag for Guadeloupe Weather past 2 weeks in Pointe-à-Pitre, Guadeloupe

Now
84 °F

Scattered clouds.


Feels Like: 90 °F
Forecast: N/A
Wind: 12 mph from Northeast

Location: Le Raizet - Guadeloupe

Current Time: Oct 21, 2014 at 5:38:38 PM

Latest Report: Oct 21, 2014 at 5:08 PM


Visibility: N/A

Pressure: 29.89 "Hg

Humidity: 66%

Dew point: 72 °F

Location of Pointe-à-PitreLocation

Historic Weather in Pointe-à-Pitre — Graph

°F

Pointe-à-Pitre temperature yesterday

Maximum temperature yesterday: 90 °F (at 2:00 PM)
Minimum temperature yesterday: 72 °F (at 2:30 AM)
Average temperature yesterday: 79 °F

Past Weeks' High & Low Weather Summary

 TemperatureHumidityPressure
High90 °F (Oct 11, 12:30 PM)100% (Oct 7, 5:30 AM)30.01 "Hg (Oct 7, 5:30 AM)
Low72 °F (Oct 17, 1:00 AM)49% (Oct 15, 2:00 PM)29.74 "Hg (Oct 13, 4:00 AM)
Average80 °F80%29.90 "Hg
* Reported Oct 6 4:00 PM — Oct 21 4:00 PM, Pointe-à-Pitre, Weather by CustomWeather, © 2014

Note: Actual official high and low records may vary slightly from our data, if they occured in-between our weather recording intervals... More about our weather records

Advertising

Pointe-à-Pitre weather history for previous 24 hours

 ConditionsComfort  
Time TempWeatherWind HumidityBarometerVisibility
4:00 PM
Oct 21
86 °FScattered clouds.13 mph59%29.86 "HgN/A
3:06 PM88 °FScattered clouds.12 mph55%29.86 "HgN/A
2:35 PM86 °FScattered clouds.10 mph59%29.86 "HgN/A
2:30 PM86 °FScattered clouds.12 mph59%29.86 "HgN/A
2:00 PM88 °FScattered clouds.10 mph55%29.86 "HgN/A
1:30 PM88 °FScattered clouds.10 mph59%29.89 "HgN/A
1:00 PM88 °FScattered clouds.10 mph55%29.89 "HgN/A
12:30 PM86 °FScattered clouds.8 mph59%29.89 "HgN/A
12:00 PM88 °FScattered clouds.9 mph55%29.92 "HgN/A
11:30 AM86 °FScattered clouds.10 mph59%29.92 "HgN/A
11:00 AM88 °FScattered clouds.12 mph55%29.95 "HgN/A
10:34 AM86 °FScattered clouds.8 mph59%29.95 "HgN/A
10:00 AM88 °FScattered clouds.9 mph59%29.95 "HgN/A
9:30 AM86 °FPassing clouds.7 mph66%29.95 "HgN/A
9:00 AM84 °FPassing clouds.5 mph70%29.95 "HgN/A
8:30 AM84 °FPassing clouds.5 mph66%29.95 "HgN/A
8:00 AM84 °FPassing clouds.3 mph66%29.95 "HgN/A
7:30 AM81 °FPassing clouds.No wind74%29.92 "HgN/A
7:00 AM75 °FClear.No wind89%29.92 "HgN/A
6:30 AM73 °FClear.1 mph94%29.92 "HgN/A
6:00 AM72 °FClear.No wind94%29.92 "HgN/A
5:30 AM72 °FClear.1 mph94%29.89 "HgN/A
5:00 AM72 °FClear.No wind94%29.89 "HgN/A
4:30 AM72 °FClear.No wind94%29.89 "HgN/A
4:00 AM72 °FClear.No wind94%29.89 "HgN/A
3:30 AM72 °FClear.1 mph94%29.89 "HgN/A
3:00 AM73 °FClear.No wind89%29.89 "HgN/A
2:30 AM73 °FClear.2 mph94%29.89 "HgN/A
2:00 AM72 °FClear.1 mph94%29.92 "HgN/A
1:30 AM73 °FMild.No wind89%29.92 "HgN/A
1:00 AM73 °FClear.No wind89%29.92 "HgN/A
12:30 AM73 °FPassing clouds.No wind89%29.92 "HgN/A
12:00 AM73 °FClear.No wind89%29.95 "HgN/A
11:00 PM
Oct 20
73 °FClear.No wind89%29.95 "HgN/A
10:30 PM73 °FClear.No wind89%29.95 "HgN/A
10:00 PM73 °FClear.No wind89%29.95 "HgN/A
9:30 PM75 °FClear.No wind83%29.95 "HgN/A
9:00 PM75 °FClear.No wind83%29.95 "HgN/A
8:30 PM77 °FClear.2 mph79%29.95 "HgN/A
8:00 PM77 °FClear.2 mph79%29.92 "HgN/A
7:30 PM79 °FClear.3 mph74%29.92 "HgN/A
7:00 PM81 °FPassing clouds.3 mph70%29.89 "HgN/A
6:30 PM81 °FPassing clouds.5 mph70%29.89 "HgN/A
6:00 PM82 °FPassing clouds.5 mph66%29.89 "HgN/A
5:30 PM82 °FPassing clouds.7 mph66%29.89 "HgN/A
5:00 PM84 °FPassing clouds.8 mph58%29.89 "HgN/A
Weather by CustomWeather, © 2014

See weather overviewHow to use our weather pages